Regional Weather Roundup
Issued by NWS Albany, NY

Home | Current Version | Previous Version | Text Only | Print | Product List | Glossary On
Versions: 1 2 3 4 5 6 7 8 9 10 11 12 13 14 15 16 17 18 19 20 21 22 23 24 25 26 27 28 29 30 31 32 33 34 35 36 37 38 39 40 41 42 43 44 45 46 47 48 49 50
000
ASUS41 KALY 202110
RWRALY

NEW YORK STATE HOURLY WEATHER ROUNDUP
NATIONAL WEATHER SERVICE ALBANY NY
500 PM EDT SAT SEP 20 2014

NOTE: "FAIR" INDICATES FEW OR NO CLOUDS BELOW 12,000 FEET WITH NO
SIGNIFICANT WEATHER AND/OR NO OBSTRUCTIONS TO VISIBILITY.

NYZ032-033-038>043-046>054-057>066-NYZ062>081-202200-
EAST


CITY           SKY/WX    TMP DP  RH WIND       PRES   REMARKS
ALBANY         PTSUNNY   73  56  54 S15G24    30.06F
GLENS FALLS    CLOUDY    69  57  65 S7        30.04F
POUGHKEEPSIE   CLOUDY    74  57  55 S12G17    30.11F
NEWBURGH       PTSUNNY   73  61  64 S12G18    30.14F
MONTGOMERY     CLOUDY    74  57  55 S14       30.11F
WHITE PLAINS   PTSUNNY   70  56  61 S14       30.16F
ISLIP          MOSUNNY   71  60  68 S12       30.17S
NEW YORK CITY  PTSUNNY   73  59  61 S18       30.16F
CENTRAL PARK   MOSUNNY   72  58  61 SE9       30.18F
$$

NYZ005>009-017-018-044>046-055-056-202200-
CENTRAL


CITY           SKY/WX    TMP DP  RH WIND       PRES   REMARKS
FULTON         PTSUNNY   73  59  61 S15G23    29.94F
SYRACUSE       MOSUNNY   74  58  57 S16G24    29.96F
ROME           MOSUNNY   71  58  63 S16G29    30.01F
ELMIRA         MOSUNNY   72  60  66 SW18G29   30.01S
BINGHAMTON     PTSUNNY   68  57  68 S12G23    30.06F
MONTICELLO     PTSUNNY   70  55  60 S9        30.14F
$$

NYZ026>034-041>043-202200-
NORTH


CITY           SKY/WX    TMP DP  RH WIND       PRES   REMARKS
WATERTOWN      PTSUNNY   74  57  55 S15G23    29.92S
FORT DRUM      NOT AVBL
MASSENA        PTSUNNY   73  59  61 SW15G22   29.91R
SARANAC LAKE   CLOUDY    65  55  70 SW15G32   29.98S
PLATTSBURGH    MOSUNNY   68  56  65 S16G24    29.95S
$$

NYZ001>004-010>016-019>021-202200-
WEST


CITY           SKY/WX    TMP DP  RH WIND       PRES   REMARKS
NIAGARA FALLS  MOSUNNY   76  58  53 SW23G31   29.87F
BUFFALO        PTSUNNY   77  57  50 SW16G24   29.88F
DUNKIRK        MOSUNNY   77  58  51 SW18G28   29.90F
JAMESTOWN      MOSUNNY   72  57  60 S12G21    29.96F
WELLSVILLE     MOSUNNY   73  52  47 SW14G28   30.02F
ROCHESTER      MOSUNNY   78  57  48 SW18G25   29.90F
PENN YAN       SUNNY     75  61  61 S13       29.96F
$$

             KEY
       WCI = WIND CHILL INDEX
       VSB = VISIBILITY
       HX  = HEAT INDEX
$$



USA.gov is the U.S. government's official web portal to all federal, state and local government web resources and services.